This demonstration page uses our WeatherBlox Daily Observations layout. Learn more.

Left ArrowRight Arrow

38.88101, -77.10428

Hourly Observations for October 19, 2022

Temp ( °F °C ) Dew Point ( °F °C ) Humidity (%) Winds ( mph kmh ) Pressure ( in mb ) Visibility ( mi km ) Precip ( " mm )
12:52 am 00:52 Partly Cloudy 42 5.6 30 -1.1 62 62 WSW 5 7 29.85 1011 10 16 0.00 0.00
1:52 am 01:52 Partly Cloudy 41 5 31 -0.6 67 67 WSW 5 7 29.87 1011 10 16 0.00 0.00
2:52 am 02:52 Mostly Cloudy 41 5 31 -0.6 67 67 SSW 6 9 29.87 1012 10 16 0.00 0.00
3:52 am 03:52 Mostly Cloudy 41 5 32 0 70 70 SSW 5 7 29.86 1011 10 16 0.00 0.00
4:52 am 04:52 Mostly Clear 40 4.4 30 -1.1 67 67 SSW 6 9 29.86 1011 10 16 0.00 0.00
5:52 am 05:52 Mostly Clear 39 3.9 31 -0.6 72 72 SSW 6 9 29.86 1011 10 16 0.00 0.00
6:52 am 06:52 Mostly Clear 39 3.9 31 -0.6 72 72 SSW 8 13 29.87 1011 10 16 0.00 0.00
7:52 am 07:52 Mostly Cloudy 40 4.4 32 0 73 73 S 6 9 29.88 1012 10 16 0.00 0.00
8:52 am 08:52 Mostly Cloudy 46 7.8 33 0.6 60 60 SSW 7 11 29.90 1013 10 16 0.00 0.00
9:52 am 09:52 Mostly Cloudy 50 10 32 0 50 50 SW 9 15 29.91 1013 10 16 0.00 0.00
10:52 am 10:52 Partly Cloudy 53 11.7 30 -1.1 41 41 SW 12 19 29.91 1013 10 16 0.00 0.00
11:52 am 11:52 Mostly Cloudy 54 12.2 30 -1.1 40 40 WSW 14 22 29.91 1013 10 16 0.00 0.00
12:52 pm 12:52 Mostly Cloudy 56 13.3 31 -0.6 38 38 W 12 19 29.90 1013 10 16 0.00 0.00
1:52 pm 13:52 Mostly Cloudy 55 12.8 31 -0.6 40 40 SW 14 22 29.89 1012 10 16 0.00 0.00
2:52 pm 14:52 Mostly Cloudy 59 15 32 0 36 36 SW 12 19 29.88 1012 10 16 0.00 0.00
3:52 pm 15:52 Mostly Cloudy 56 13.3 29 -1.7 35 35 W 14 22 29.88 1012 10 16 0.00 0.00
4:52 pm 16:52 Mostly Cloudy 57 13.9 29 -1.7 34 34 W 18 30 29.89 1012 10 16 0.00 0.00
5:52 pm 17:52 Partly Cloudy 55 12.8 30 -1.1 38 38 W 12 19 29.91 1013 10 16 0.00 0.00
6:52 pm 18:52 Partly Cloudy 54 12.2 30 -1.1 40 40 WNW 13 20 29.93 1014 10 16 0.00 0.00
7:52 pm 19:52 Mostly Clear 52 11.1 31 -0.6 44 44 W 9 15 29.96 1015 10 16 0.00 0.00
8:52 pm 20:52 Mostly Clear 50 10 32 0 50 50 WNW 8 13 29.99 1016 10 16 0.00 0.00
9:52 pm 21:52 Mostly Clear 50 10 32 0 50 50 W 8 13 30.00 1016 10 16 0.00 0.00
10:52 pm 22:52 Mostly Clear 47 8.3 33 0.6 58 58 SSW 5 7 30.02 1017 10 16 0.00 0.00
11:52 pm 23:52 Partly Cloudy 45 7.2 33 0.6 63 63 SW 6 9 30.03 1017 10 16 0.00 0.00

Powered by AerisWeather